Home   Weather   Jessheim   Past weeks

Flag for Norway Past Weather in Jessheim, Norway — Yesterday and Last 2 Weeks

Now
63 °F

Broken clouds.


Feels Like: 63 °F
Forecast: 49 / 58 °F
Wind: 12 mph from South

Location: Oslo Gardermoen Airport

Current Time: Sep 25, 2016 at 4:14:04 PM

Latest Report: Sep 25, 2016 at 3:20 PM


Visibility: N/A

Pressure: 30.07 "Hg

Humidity: 77%

Dew Point: 55 °F

Location of JessheimLocation

Past Weather in Jessheim — Graph

°F

Jessheim Temperature Yesterday

Maximum temperature yesterday: 57 °F (at 2:50 PM)
Minimum temperature yesterday: 41 °F (at 6:20 AM)
Average temperature yesterday: 50 °F

High & Low Weather Summary for the Past Weeks

 TemperatureHumidityPressure
High72 °F (Sep 13, 3:20 PM)100% (Sep 11, 3:50 AM)30.24 "Hg (Sep 11, 3:50 AM)
Low39 °F (Sep 12, 5:50 AM)34% (Sep 11, 6:20 PM)29.68 "Hg (Sep 11, 6:20 AM)
Average57 °F83%30.10 "Hg
* Reported Sep 10 2:20 PM — Sep 25 2:50 PM, Jessheim, Weather by CustomWeather, © 2016

Note: Actual official high and low records may vary slightly from our data, if they occured in-between our weather recording intervals... More about our weather records

Advertising

Jessheim Weather History for the Previous 24 Hours

Scroll right to see more
 ConditionsComfort  
Time TempWeatherWind HumidityBarometerVisibility
2:50 PM
Sun, Sep 25
61 °FBroken clouds.14 mph77%30.07 "HgN/A
2:20 PM61 °FPartly sunny.13 mph77%30.07 "HgN/A
1:50 PM61 °FPartly sunny.10 mph77%30.07 "HgN/A
1:20 PM61 °FBroken clouds.10 mph77%30.07 "HgN/A
12:50 PM61 °FBroken clouds.13 mph77%30.07 "HgN/A
12:20 PM61 °FScattered clouds.15 mph77%30.07 "HgN/A
11:50 AM61 °FScattered clouds.16 mph77%30.07 "HgN/A
11:20 AM61 °FBroken clouds.15 mph77%30.07 "HgN/A
10:50 AM59 °FScattered showers. Broken clouds.14 mph82%30.07 "HgN/A
10:20 AM57 °FBroken clouds.14 mph94%30.07 "HgN/A
9:50 AM57 °FSprinkles. Partly sunny.9 mph94%30.07 "HgN/A
9:20 AM57 °FSprinkles. Partly sunny.9 mph88%30.07 "HgN/A
8:50 AM57 °FScattered showers. Broken clouds.10 mph88%30.07 "HgN/A
8:20 AM57 °FBroken clouds.12 mph88%30.04 "HgN/A
7:50 AM55 °FPartly sunny.10 mph94%30.04 "HgN/A
7:20 AM55 °FPartly sunny.10 mph94%30.04 "HgN/A
6:50 AM55 °FPartly cloudy.12 mph94%30.04 "HgN/A
6:20 AM55 °FPartly cloudy.13 mph94%30.04 "HgN/A
5:50 AM55 °FPassing clouds.9 mph94%30.04 "HgN/A
5:20 AM55 °FPartly cloudy.6 mph94%30.04 "HgN/A
4:50 AM55 °FPassing clouds.6 mph94%30.04 "HgN/A
3:50 AM55 °FMostly cloudy.7 mph94%30.04 "HgN/A
3:20 AM55 °FPartly cloudy.8 mph94%30.04 "HgN/A
2:50 AM55 °FPartly cloudy.10 mph94%30.04 "HgN/A
2:20 AM55 °FPartly cloudy.7 mph88%30.04 "HgN/A
1:50 AM55 °FPartly cloudy.9 mph88%30.04 "HgN/A
1:20 AM55 °FPartly cloudy.7 mph88%30.04 "HgN/A
12:50 AM55 °FPassing clouds.7 mph88%30.04 "HgN/A
12:20 AM55 °FPassing clouds.7 mph88%30.04 "HgN/A
11:50 PM
Sat, Sep 24
55 °FPartly cloudy.9 mph88%30.04 "HgN/A
11:20 PM55 °FMostly cloudy.12 mph88%30.04 "HgN/A
10:50 PM55 °FPartly cloudy.9 mph88%30.04 "HgN/A
10:20 PM55 °FPassing clouds.10 mph88%30.04 "HgN/A
9:50 PM54 °FPassing clouds.13 mph88%30.04 "HgN/A
9:20 PM55 °FPassing clouds.13 mph82%30.04 "HgN/A
8:50 PM54 °FPartly cloudy.13 mph88%30.04 "HgN/A
8:20 PM54 °FPartly cloudy.12 mph82%30.04 "HgN/A
7:50 PM54 °FPartly cloudy.7 mph77%30.04 "HgN/A
7:20 PM52 °FPassing clouds.6 mph77%30.04 "HgN/A
6:50 PM54 °FPassing clouds.5 mph67%30.04 "HgN/A
6:20 PM54 °FPassing clouds.7 mph63%30.04 "HgN/A
5:50 PM54 °FPassing clouds.9 mph63%30.04 "HgN/A
5:20 PM54 °FPassing clouds.9 mph67%30.07 "HgN/A
4:50 PM55 °FPassing clouds.10 mph59%30.07 "HgN/A
4:20 PM57 °FSunny.13 mph51%30.07 "Hg10 mi
Weather by CustomWeather, © 2016

See weather overviewHow to use our weather pages